CW7500 Weather Reports


Display with metric or nautical units.
time (UTC)temp
F
wind
direction
speed
MPH
gust
MPH
rain 1hr
in
rain 24hr
in
rain mn
in
humidity
%
barometer
mb
20260902203010 71 9 2.0 6.0 0.00 0.00 0.00 65 1019.2
20260902202511 71 46 2.0 5.0 0.00 0.00 0.00 65 1019.3
20260902202010 71 146 1.0 6.0 0.00 0.00 0.00 64 1019.3
20260902201511 72 60 2.0 7.0 0.00 0.00 0.00 64 1019.3
20260902201010 73 198 1.0 2.0 0.00 0.00 0.00 62 1019.5
20260902200511 73 71 3.0 6.0 0.00 0.00 0.00 59 1019.5
20260902200010 73 57 1.0 3.0 0.00 0.00 0.00 56 1019.5
20260902195510 73 58 1.0 2.0 0.00 0.00 0.00 55 1019.5
20260902195011 74 48 1.0 1.0 0.00 0.00 0.00 57 1019.5
20260902194510 74 137 1.0 6.0 0.00 0.00 0.00 52 1019.4
20260902194011 74 48 2.0 3.0 0.00 0.00 0.00 52 1019.2
20260902193510 74 53 1.0 2.0 0.00 0.00 0.00 53 1019.3
20260902192510 75 134 2.0 3.0 0.00 0.00 0.00 53 1019.4
20260902192010 75 222 2.0 3.0 0.00 0.00 0.00 54 1019.4
20260902191511 75 216 1.0 3.0 0.00 0.00 0.00 50 1019.5
20260902191010 76 185 1.0 3.0 0.00 0.00 0.00 51 1019.5
20260902190011 75 255 1.0 3.0 0.00 0.00 0.00 47 1019.6
20260902185011 76 240 2.0 7.0 0.00 0.00 0.00 47 1019.5
20260902184510 76 171 1.0 5.0 0.00 0.00 0.00 51 1019.5
20260902184010 76 185 2.0 7.0 0.00 0.00 0.00 48 1019.5
20260902183511 76 238 3.0 8.0 0.00 0.00 0.00 55 1019.7
20260902183010 76 53 1.0 6.0 0.00 0.00 0.00 50 1019.5
20260902182510 75 21 4.0 7.0 0.00 0.00 0.00 53 1019.7
20260902182010 75 167 1.0 5.0 0.00 0.00 0.00 54 1019.6
20260902181510 75 349 1.0 5.0 0.00 0.00 0.00 53 1019.6
20260902181011 76 23 1.0 5.0 0.00 0.00 0.00 54 1019.6
20260902180510 76 173 2.0 5.0 0.00 0.00 0.00 56 1019.7
20260902180010 76 107 1.0 5.0 0.00 0.00 0.00 59 1019.5
20260902175510 76 216 2.0 6.0 0.00 0.00 0.00 55 1019.5
20260902175010 76 264 2.0 5.0 0.00 0.00 0.00 54 1019.5
20260902174511 75 200 2.0 5.0 0.00 0.00 0.00 55 1019.5
20260902174010 75 238 1.0 5.0 0.00 0.00 0.00 57 1019.5
20260902173510 74 106 2.0 6.0 0.00 0.00 0.00 57 1019.5
20260902173011 74 66 1.0 6.0 0.00 0.00 0.00 55 1019.6
20260902172510 74 124 2.0 5.0 0.00 0.00 0.00 59 1019.7
20260902172010 74 153 2.0 7.0 0.00 0.02 0.00 58 1019.8
20260902171510 74 91 2.0 5.0 0.00 0.02 0.00 57 1019.8
20260902171010 74 253 2.0 5.0 0.00 0.02 0.00 57 1020.0
20260902165510 73 180 2.0 5.0 0.00 0.02 0.00 58 1020.0
20260902165010 74 189 2.0 5.0 0.00 0.02 0.00 57 1020.2
20260902164510 74 5 3.0 10.0 0.00 0.02 0.00 56 1020.1
20260902164010 76 141 1.0 3.0 0.00 0.02 0.00 57 1020.3
20260902163510 75 191 2.0 5.0 0.00 0.02 0.00 58 1020.3
20260902163010 74 227 1.0 3.0 0.00 0.02 0.00 60 1020.5
20260902162510 74 183 1.0 5.0 0.00 0.02 0.00 62 1020.2
20260902162010 74 138 4.0 9.0 0.00 0.02 0.00 57 1020.3
20260902161510 75 182 2.0 5.0 0.00 0.02 0.00 60 1020.1
20260902160510 73 47 2.0 3.0 0.00 0.02 0.00 60 1020.4
20260902160010 72 117 3.0 7.0 0.00 0.02 0.00 64 1020.4
20260902155009 73 18 1.0 3.0 0.00 0.02 0.00 64 1020.5
20260902154510 73 14 2.0 6.0 0.00 0.02 0.00 62 1020.5
20260902154009 73 131 2.0 7.0 0.00 0.02 0.00 63 1020.7
20260902153510 73 55 3.0 7.0 0.00 0.02 0.00 61 1020.9
20260902153009 73 18 0.0 5.0 0.00 0.02 0.00 64 1020.9
20260902152510 73 9 1.0 3.0 0.00 0.02 0.00 65 1021.0
20260902152010 73 229 1.0 5.0 0.00 0.02 0.00 64 1021.0
20260902151010 73 196 1.0 2.0 0.00 0.02 0.00 59 1021.1
20260902150510 72 71 1.0 6.0 0.00 0.02 0.00 64 1021.1
20260902150009 72 207 1.0 3.0 0.00 0.02 0.00 63 1020.9
20260902145510 73 168 1.0 2.0 0.00 0.02 0.00 60 1021.1
20260902144510 72 52 4.0 7.0 0.00 0.02 0.00 64 1021.0
20260902143510 70 32 2.0 6.0 0.00 0.02 0.00 70 1020.9
20260902143009 69 52 3.0 6.0 0.00 0.02 0.00 73 1020.9
20260902142510 69 23 2.0 7.0 0.00 0.02 0.00 70 1020.7
20260902141510 70 37 1.0 2.0 0.00 0.02 0.00 75 1020.6
20260902141009 69 72 1.0 6.0 0.00 0.02 0.00 78 1020.4
20260902140510 69 37 1.0 6.0 0.00 0.02 0.00 77 1020.3
20260902140009 69 54 3.0 6.0 0.00 0.02 0.00 77 1020.4
20260902135510 69 62 1.0 2.0 0.00 0.02 0.00 78 1020.4
20260902135009 69 67 1.0 5.0 0.00 0.02 0.00 81 1020.2
20260902133509 67 243 1.0 3.0 0.00 0.04 0.00 89 1020.3
20260902133010 66 122 2.0 10.0 0.00 0.04 0.00 91 1020.3
20260902132509 66 53 2.0 6.0 0.00 0.06 0.00 92 1020.2
20260902132009 67 131 1.0 7.0 0.00 0.06 0.00 90 1020.0
20260902131509 67 71 1.0 3.0 0.00 0.06 0.00 90 1020.0
20260902131010 66 108 1.0 5.0 0.00 0.06 0.00 93 1020.0
20260902130509 66 38 2.0 5.0 0.00 0.06 0.00 92 1020.0
20260902125509 65 83 2.0 6.0 0.00 0.08 0.00 94 1020.3
20260902125010 64 113 2.0 7.0 0.00 0.08 0.00 96 1020.4
20260902124509 64 145 2.0 5.0 0.00 0.08 0.00 97 1020.4
20260902123509 64 6 2.0 3.0 0.00 0.08 0.00 97 1020.5
20260902122509 63 34 1.0 3.0 0.00 0.10 0.00 99 1020.6
20260902122009 63 62 2.0 3.0 0.00 0.12 0.00 99 1020.4
20260902121009 62 95 1.0 3.0 0.00 0.14 0.00 100 1020.6
20260902120509 62 35 1.0 2.0 0.00 0.14 0.00 100 1020.7
20260902120009 62 71 1.0 3.0 0.00 0.14 0.00 100 1020.7
20260902115509 62 52 0.0 2.0 0.00 0.14 0.00 100 1020.8
20260902115010 61 19 1.0 3.0 0.00 0.14 0.00 100 1020.9
20260902114509 61 15 1.0 3.0 0.00 0.14 0.00 100 1020.9
20260902114009 61 4 2.0 3.0 0.00 0.14 0.00 100 1020.9
20260902113510 61 45 1.0 2.0 0.00 0.14 0.00 100 1020.8
20260902113009 61 302 1.0 2.0 0.00 0.14 0.00 100 1020.9
20260902112509 61 359 0.0 2.0 0.00 0.14 0.00 100 1020.7
20260902112009 61 290 1.0 2.0 0.00 0.14 0.00 100 1020.7
20260902111509 61 16 1.0 3.0 0.00 0.14 0.00 100 1020.6
20260902111010 60 11 1.0 2.0 0.00 0.14 0.00 100 1020.6
20260902110509 60 308 0.0 2.0 0.00 0.14 0.00 100 1020.6
20260902110009 60 338 1.0 2.0 0.00 0.14 0.00 100 1020.4
20260902105508 60 359 0.0 1.0 0.00 0.14 0.00 100 1020.6
20260902105009 60 323 0.0 1.0 0.00 0.14 0.00 100 1020.4
20260902104509 60 133 0.0 1.0 0.00 0.14 0.00 100 1020.3
20260902104009 60 34 1.0 2.0 0.00 0.14 0.00 100 1020.0
20260902103509 60 33 1.0 2.0 0.00 0.14 0.00 100 1020.0
20260902103009 60 326 1.0 3.0 0.00 0.14 0.00 100 1020.0
20260902101509 60 285 1.0 2.0 0.00 0.14 0.00 100 1020.1
20260902101009 60 277 1.0 2.0 0.00 0.14 0.00 100 1020.0
20260902095509 60 253 0.0 2.0 0.00 0.14 0.00 100 1019.6
20260902095008 60 337 1.0 3.0 0.00 0.14 0.00 100 1019.5
20260902094509 60 102 1.0 2.0 0.00 0.14 0.00 100 1019.5
20260902094009 60 18 1.0 2.0 0.00 0.14 0.00 100 1019.7
20260902093509 60 59 0.0 2.0 0.00 0.14 0.00 100 1019.5
20260902093009 60 5 0.0 1.0 0.00 0.14 0.00 100 1019.4
20260902092509 60 57 1.0 2.0 0.00 0.14 0.00 100 1019.3
20260902092009 60 95 0.0 3.0 0.00 0.14 0.00 100 1019.1
20260902091509 60 25 1.0 2.0 0.00 0.14 0.00 100 1019.1
20260902090509 60 8 1.0 2.0 0.00 0.14 0.00 100 1019.4
20260902090009 60 333 1.0 3.0 0.00 0.14 0.00 100 1019.4
20260902085509 60 354 1.0 2.0 0.00 0.14 0.00 100 1019.2
20260902085009 60 36 1.0 3.0 0.00 0.14 0.00 100 1019.3
20260902084508 60 11 1.0 5.0 0.00 0.14 0.00 100 1019.2
20260902084009 60 344 1.0 2.0 0.00 0.14 0.00 100 1019.2
20260902083009 60 354 0.0 1.0 0.00 0.14 0.00 100 1019.3
20260902082509 60 295 1.0 2.0 0.00 0.14 0.00 100 1019.3
20260902082008 60 268 1.0 2.0 0.00 0.14 0.00 100 1019.0
20260902081009 60 38 1.0 3.0 0.00 0.14 0.00 100 1019.1
20260902080009 60 274 0.0 1.0 0.00 0.14 0.00 100 1019.1
20260902075508 60 127 0.0 1.0 0.00 0.14 0.00 100 1019.2
20260902075008 60 258 1.0 1.0 0.00 0.14 0.00 100 1019.2
20260902074509 60 107 0.0 1.0 0.00 0.14 0.00 100 1019.3
20260902074008 60 278 0.0 1.0 0.00 0.14 0.00 100 1019.4
20260902073509 60 341 0.0 2.0 0.00 0.14 0.00 100 1019.4
20260902073008 60 19 1.0 2.0 0.00 0.14 0.00 100 1019.5
20260902072509 60 92 0.0 1.0 0.00 0.14 0.00 100 1019.4
20260902072009 60 54 0.0 0.0 0.00 0.14 0.00 100 1019.3
20260902071508 60 236 0.0 0.0 0.00 0.14 0.00 100 1019.3
20260902071008 60 61 0.0 1.0 0.00 0.14 0.00 100 1019.1
20260902070508 60 342 0.0 1.0 0.00 0.14 0.00 100 1019.1
20260902070009 60 324 1.0 1.0 0.00 0.14 0.00 100 1019.1
20260902065508 60 357 0.0 1.0 0.00 0.14 0.00 100 1019.2
20260902065008 60 283 0.0 1.0 0.00 0.14 0.00 100 1019.2
20260902064508 60 293 0.0 2.0 0.00 0.14 0.00 100 1019.3
20260902063009 60 95 0.0 2.0 0.00 0.14 0.00 100 1019.0
20260902062508 60 278 2.0 3.0 0.00 0.14 0.00 100 1019.0
20260902062009 60 17 1.0 2.0 0.00 0.14 0.00 100 1019.0
20260902061508 60 18 1.0 2.0 0.00 0.14 0.00 100 1019.2
20260902060509 60 78 1.0 3.0 0.00 0.14 0.00 100 1019.1
20260902060008 60 22 0.0 1.0 0.00 0.14 0.00 100 1019.1
20260902055509 60 324 1.0 2.0 0.00 0.14 0.00 100 1019.0
20260902055008 60 24 1.0 2.0 0.00 0.14 0.00 100 1019.0
20260902054508 60 49 1.0 3.0 0.00 0.14 0.00 100 1019.0
20260902054008 60 14 0.0 2.0 0.00 0.14 0.00 100 1019.0
20260902053508 60 38 0.0 1.0 0.00 0.14 0.00 100 1019.0
20260902053009 60 19 0.0 1.0 0.00 0.14 0.00 100 1019.0
20260902052508 60 290 0.0 1.0 0.00 0.14 0.00 100 1019.0
20260902052008 60 67 0.0 1.0 0.00 0.14 0.00 100 1019.0
20260902051508 60 350 1.0 1.0 0.00 0.14 0.00 100 1018.9
20260902051008 59 70 0.0 1.0 0.00 0.14 0.00 100 1019.0
20260902050509 59 31 0.0 1.0 0.00 0.14 0.00 100 1018.8
20260902050009 59 43 0.0 2.0 0.00 0.14 0.00 100 1018.9
20260902045508 59 348 0.0 0.0 0.00 0.14 0.00 100 1018.7
20260902045008 59 21 0.0 0.0 0.00 0.14 0.00 100 1018.6
20260902044508 59 76 0.0 1.0 0.00 0.14 0.00 100 1018.6
20260902044008 59 24 0.0 1.0 0.00 0.14 0.00 100 1018.6
20260902043508 59 292 0.0 0.0 0.00 0.14 0.00 100 1018.7
20260902043008 59 246 0.0 0.0 0.00 0.14 0.00 100 1018.7
20260902042508 59 247 0.0 1.0 0.00 0.14 0.00 100 1018.5
20260902042008 59 247 0.0 0.0 0.00 0.14 0.00 100 1018.5
20260902041008 59 231 1.0 1.0 0.00 0.14 0.00 100 1018.4
20260902040508 59 251 0.0 0.0 0.00 0.14 0.00 100 1018.2
20260902040008 59 234 0.0 1.0 0.00 0.14 0.00 100 1018.1
20260902035508 60 253 0.0 1.0 0.00 0.14 0.14 100 1018.2
20260902035008 60 258 1.0 1.0 0.00 0.14 0.14 100 1018.1
20260902034508 60 257 1.0 3.0 0.00 0.14 0.14 100 1018.0
20260902034008 60 52 1.0 3.0 0.00 0.14 0.14 100 1017.8
20260902033508 60 12 0.0 3.0 0.00 0.14 0.14 100 1017.7
20260902033008 60 60 1.0 2.0 0.00 0.14 0.14 100 1017.7
20260902032508 60 51 1.0 2.0 0.00 0.14 0.14 100 1017.7
20260902032008 60 48 0.0 1.0 0.00 0.14 0.14 100 1017.7
20260902031508 60 9 0.0 0.0 0.00 0.14 0.14 100 1017.9
20260902031008 60 304 1.0 2.0 0.00 0.14 0.14 100 1018.0
20260902030508 60 19 0.0 1.0 0.00 0.14 0.14 100 1018.0
20260902025507 59 245 1.0 2.0 0.00 0.14 0.14 100 1018.0
20260902025007 59 5 0.0 2.0 0.00 0.14 0.14 100 1018.0
20260902024508 59 351 0.0 1.0 0.00 0.14 0.14 100 1017.9
20260902024008 59 8 1.0 2.0 0.00 0.14 0.14 100 1017.9
20260902023508 59 17 0.0 0.0 0.00 0.14 0.14 100 1017.8
20260902023008 59 24 0.0 1.0 0.00 0.14 0.14 100 1017.8
20260902022508 59 29 0.0 1.0 0.00 0.14 0.14 100 1017.8
20260902022008 59 16 0.0 0.0 0.00 0.14 0.14 100 1017.9
20260902021507 59 16 0.0 0.0 0.00 0.14 0.14 100 1017.9
20260902021008 59 249 0.0 0.0 0.00 0.14 0.14 100 1017.8
20260902020507 59 249 0.0 0.0 0.00 0.14 0.14 100 1018.0
20260902020008 59 265 0.0 0.0 0.00 0.14 0.14 100 1018.0
20260902015508 59 257 0.0 0.0 0.00 0.14 0.14 100 1017.9
20260902015007 59 238 0.0 0.0 0.00 0.14 0.14 100 1017.9
20260902014508 59 226 0.0 0.0 0.00 0.14 0.14 100 1018.0
20260902014007 59 218 0.0 0.0 0.00 0.14 0.14 100 1017.8
20260902013507 59 72 1.0 2.0 0.00 0.14 0.14 100 1017.6
20260902013008 59 64 0.0 1.0 0.00 0.14 0.14 100 1017.8
20260902012508 59 50 1.0 1.0 0.00 0.14 0.14 100 1018.0
20260902012008 59 59 0.0 2.0 0.00 0.14 0.14 100 1018.0
20260902011507 59 11 0.0 1.0 0.00 0.14 0.14 100 1017.9
20260902011008 59 358 0.0 1.0 0.00 0.14 0.14 100 1018.0
20260902010507 59 75 0.0 0.0 0.00 0.14 0.14 100 1017.8
20260902005508 59 38 0.0 1.0 0.00 0.14 0.14 100 1017.6
20260902005007 59 54 0.0 1.0 0.00 0.14 0.14 100 1017.4
20260902004507 59 13 0.0 0.0 0.00 0.14 0.14 100 1017.7
20260902004007 59 13 0.0 0.0 0.00 0.14 0.14 100 1017.6
20260902003507 59 21 0.0 0.0 0.00 0.14 0.14 100 1017.6
20260902003008 59 13 0.0 0.0 0.00 0.14 0.14 100 1017.5
20260902002507 59 342 0.0 0.0 0.00 0.14 0.14 100 1017.5
20260902002007 59 258 0.0 1.0 0.00 0.14 0.14 100 1017.5
20260902001507 60 111 0.0 0.0 0.00 0.14 0.14 100 1017.3
20260902001008 60 67 0.0 0.0 0.00 0.14 0.14 100 1017.2
20260902000508 60 134 0.0 0.0 0.00 0.14 0.14 100 1017.4
20260902000008 60 65 0.0 0.0 0.00 0.14 0.14 100 1017.5
20260901235507 60 43 0.0 0.0 0.00 0.14 0.14 100 1017.5
20260901235008 60 20 0.0 1.0 0.00 0.14 0.14 100 1017.5
20260901234507 60 38 0.0 1.0 0.00 0.14 0.14 100 1017.4
20260901234007 60 51 0.0 1.0 0.00 0.14 0.14 100 1017.5
20260901233507 60 41 0.0 0.0 0.00 0.14 0.14 100 1017.3
20260901233007 60 126 0.0 0.0 0.00 0.14 0.14 100 1017.2
20260901232507 60 75 0.0 0.0 0.00 0.14 0.14 100 1017.2
20260901232007 60 29 0.0 1.0 0.00 0.14 0.14 100 1017.3
20260901231507 60 183 0.0 0.0 0.00 0.14 0.14 100 1017.3
20260901231007 60 88 1.0 1.0 0.00 0.14 0.14 100 1017.3
20260901230507 60 173 0.0 1.0 0.00 0.14 0.14 100 1017.3
20260901230007 60 56 0.0 1.0 0.00 0.14 0.14 100 1017.2
20260901225507 60 108 0.0 1.0 0.00 0.14 0.14 100 1017.3
20260901225007 60 117 1.0 3.0 0.00 0.14 0.14 100 1017.1
20260901224507 60 287 0.0 0.0 0.00 0.14 0.14 100 1017.0
20260901224007 60 142 0.0 0.0 0.00 0.14 0.14 100 1017.0
20260901223507 60 137 0.0 0.0 0.00 0.14 0.14 100 1017.0
20260901223007 60 186 0.0 1.0 0.00 0.14 0.14 100 1017.1
20260901222507 60 137 0.0 2.0 0.00 0.14 0.14 100 1017.2
20260901222007 60 165 0.0 1.0 0.00 0.14 0.14 100 1017.0
20260901221507 60 214 0.0 2.0 0.00 0.14 0.14 100 1017.2
20260901221007 60 206 1.0 1.0 0.00 0.14 0.14 100 1017.2
20260901220508 60 166 1.0 1.0 0.00 0.14 0.14 100 1017.2
20260901220007 60 206 0.0 1.0 0.00 0.14 0.14 100 1017.2
20260901215007 60 240 1.0 1.0 0.00 0.14 0.14 100 1017.2
20260901214507 60 150 0.0 5.0 0.00 0.14 0.14 100 1017.3
20260901213507 59 233 1.0 2.0 0.00 0.14 0.14 99 1017.2
20260901212507 60 280 1.0 3.0 0.00 0.14 0.14 99 1017.0
20260901211507 60 160 1.0 2.0 0.00 0.14 0.14 97 1017.1
20260901211007 60 128 1.0 3.0 0.00 0.14 0.14 98 1017.1
20260901210507 60 166 0.0 2.0 0.00 0.14 0.14 98 1017.0
20260901210007 60 186 2.0 6.0 0.00 0.14 0.14 98 1017.0
20260901205007 60 211 1.0 2.0 0.00 0.14 0.14 99 1016.9
20260901204507 60 191 1.0 5.0 0.00 0.14 0.14 98 1016.9
20260901204006 60 180 1.0 2.0 0.00 0.14 0.14 99 1016.8
20260901203507 61 229 1.0 2.0 0.00 0.14 0.14 100 1016.7